Location: Canazei
(46.4667°N, 11.7667°E)
Time: 07:36:41
(UTC+00:00)

Cosmos 2084 - Pass Details

Date: 21 April 2021
Orbit: 546 x 635 km, 62.8° (Epoch: 05 May)

Event Time Altitude Azimuth Distance (km) Brightness Sun altitude
Exits shadow 01:32:01 41° 121° (ESE) 824 4.2 -23.7°
Drops below altitude 10° 01:35:59 10° 52° (NE) 1,887 7.1 -23.3°
Sets 01:38:21 0° 46° (NE) 2,805 8.4 -23.0°
